Location: Unspecified
(0.0000°N, 0.0000°E)
Time: 05:36:15
(UTC+00:00)

Altair - Visible Passes

Search period start: 21 May 2026 00:00
Search period end: 31 May 2026 00:00
Orbit: 1501 x 1682 km, 47.2° (Epoch: 20 May)

Date Brightness Start Highest point End Pass type
(mag) Time Alt. Az. Time Alt. Az. Time Alt. Az.
21 May 9.3 02:24:54 16° NNW 02:24:54 16° NNW 02:27:23 10° N visible
22 May 9.5 02:00:49 15° N 02:00:49 15° N 02:02:33 10° N visible
23 May 9.6 01:36:42 13° N 01:36:42 13° N 01:37:41 10° N visible
24 May 9.7 01:12:30 11° N 01:12:30 11° N 01:12:45 10° N visible
30 May 9.2 19:56:33 10° S 19:56:56 11° S 19:56:56 11° S visible
